EW3867 Weather Reports


Display with metric or nautical units.
time (UTC)temp
F
wind
direction
speed
MPH
gust
MPH
rain 1hr
in
rain 24hr
in
rain mn
in
humidity
%
barometer
mb
20260503180445 67 145 3.0 10.0 0.00 0.00 0.00 23 1013.2
20260503174237 64 192 1.0 14.0 0.00 0.00 0.00 26 1013.5
20260503173228 64 173 4.0 0.0 0.00 0.00 0.00 25 1013.8
20260503172207 64 179 3.0 16.0 0.00 0.00 0.00 25 1014.0
20260503171151 64 165 1.0 0.0 0.00 0.00 0.00 26 1014.0
20260503170137 64 156 4.0 13.0 0.00 0.00 0.00 28 1014.1
20260503150939 57 96 3.0 17.0 0.00 0.00 0.00 34 1015.2
20260503130625 42 34 9.0 15.0 0.00 0.00 0.00 44 1015.3
20260503110330 38 121 0.0 0.0 0.00 0.00 0.00 46 1015.2
20260503100241 38 121 0.0 0.0 0.00 0.00 0.00 45 1015.4
20260503090146 38 140 0.0 7.0 0.00 0.00 0.00 44 1015.3
20260503080932 40 155 0.0 15.0 0.00 0.00 0.00 40 1015.3
20260503072932 41 167 0.0 2.0 0.00 0.00 0.00 40 1015.2
20260503071901 42 167 0.0 0.0 0.00 0.00 0.00 39 1015.2
20260503070845 41 167 0.0 0.0 0.00 0.00 0.00 40 1015.2
20260503054757 42 167 0.0 0.0 0.00 0.00 0.00 38 1015.0
20260503053741 43 167 0.0 0.0 0.00 0.00 0.00 37 1015.0
20260503052719 43 167 0.0 0.0 0.00 0.00 0.00 37 1015.0
20260503051713 43 167 0.0 0.0 0.00 0.00 0.00 37 1014.9
20260503050730 42 167 0.0 0.0 0.00 0.00 0.00 37 1014.9
20260503045706 42 167 0.0 0.0 0.00 0.00 0.00 37 1014.9
20260503044653 43 167 0.0 2.0 0.00 0.00 0.00 36 1015.0
20260503043655 43 167 0.0 0.0 0.00 0.00 0.00 35 1014.9
20260503042632 43 167 0.0 0.0 0.00 0.00 0.00 34 1014.9
20260503040432 45 167 0.0 0.0 0.00 0.00 0.00 32 1014.9
20260503035440 45 167 0.0 0.0 0.00 0.00 0.00 32 1014.8
20260503034431 46 167 0.0 0.0 0.00 0.00 0.00 31 1014.6
20260503033415 47 167 0.0 0.0 0.00 0.00 0.00 29 1014.6
20260503032355 50 167 0.0 0.0 0.00 0.00 0.00 27 1014.5
20260503031403 51 167 0.0 0.0 0.00 0.00 0.00 27 1014.3
20260503030404 52 167 0.0 0.0 0.00 0.00 0.00 26 1014.2
20260503025330 53 167 0.0 0.0 0.00 0.00 0.00 25 1014.0
20260503024335 54 167 0.0 0.0 0.00 0.00 0.00 25 1013.9
20260503023347 55 167 0.0 0.0 0.00 0.00 0.00 24 1013.8
20260503022340 55 167 0.0 0.0 0.00 0.00 0.00 24 1013.8
20260503021335 56 167 0.0 0.0 0.00 0.00 0.00 23 1013.6
20260503020345 56 167 0.0 0.0 0.00 0.00 0.00 23 1013.6
20260503015354 57 167 0.0 0.0 0.00 0.00 0.00 22 1013.5
20260503014346 58 167 0.0 0.0 0.00 0.00 0.00 21 1013.4
20260503013341 59 167 0.0 0.0 0.00 0.00 0.00 21 1013.4
20260503012355 60 167 0.0 2.0 0.00 0.00 0.00 20 1013.4
20260503011410 61 167 3.0 10.0 0.00 0.00 0.00 20 1013.5
20260503010422 62 183 0.0 8.0 0.00 0.00 0.00 20 1013.3
20260503005426 63 184 0.0 6.0 0.00 0.00 0.00 19 1013.4
20260503004442 64 199 0.0 0.0 0.00 0.00 0.00 19 1013.5
20260503003431 64 200 0.0 8.0 0.00 0.00 0.00 19 1013.5
20260503002418 64 195 3.0 11.0 0.00 0.00 0.00 19 1013.7
20260503001408 64 150 0.0 9.0 0.00 0.00 0.00 19 1013.8
20260502235306 65 168 6.0 15.0 0.00 0.00 0.00 19 1013.9
20260502234322 65 182 0.0 0.0 0.00 0.00 0.00 19 1014.0
20260502233334 65 188 0.0 1.0 0.00 0.00 0.00 19 1014.0
20260502232308 65 190 1.0 11.0 0.00 0.00 0.00 19 1014.1
20260502231325 65 178 4.0 11.0 0.00 0.00 0.00 20 1014.0
20260502225123 65 130 3.0 11.0 0.00 0.00 0.00 20 1014.1
20260502224130 65 146 6.0 13.0 0.00 0.00 0.00 19 1014.2
20260502223151 65 186 4.0 15.0 0.00 0.00 0.00 20 1014.3
20260502222214 65 195 4.0 18.0 0.00 0.00 0.00 20 1014.4
20260502221149 65 178 4.0 18.0 0.00 0.00 0.00 22 1014.7
20260502220126 65 196 1.0 11.0 0.00 0.00 0.00 22 1014.8
20260502214029 64 145 7.0 15.0 0.00 0.00 0.00 21 1015.3
20260502212957 65 177 4.0 12.0 0.00 0.00 0.00 21 1015.4
20260502211934 65 153 1.0 11.0 0.00 0.00 0.00 20 1015.6
20260502210937 64 182 0.0 4.0 0.00 0.00 0.00 24 1015.8
20260502205944 64 134 4.0 8.0 0.00 0.00 0.00 23 1016.1
20260502204954 64 116 0.0 0.0 0.00 0.00 0.00 22 1016.2
20260502202848 63 184 4.0 3.0 0.00 0.00 0.00 24 1016.5
20260502201911 64 178 4.0 15.0 0.00 0.00 0.00 25 1016.6
20260502200849 63 128 1.0 10.0 0.00 0.00 0.00 25 1016.7
20260502194748 62 143 4.0 14.0 0.00 0.00 0.00 24 1017.1
20260502193803 62 125 4.0 13.0 0.00 0.00 0.00 24 1017.3
20260502192752 61 157 0.0 8.0 0.00 0.00 0.00 28 1017.2
20260502190712 61 138 1.0 8.0 0.00 0.00 0.00 28 1017.5
20260502185639 61 180 7.0 15.0 0.00 0.00 0.00 28 1017.7
20260502184653 61 139 4.0 14.0 0.00 0.00 0.00 28 1017.9
20260502183627 61 130 7.0 21.0 0.00 0.00 0.00 28 1018.0
20260502182614 61 140 8.0 17.0 0.00 0.00 0.00 27 1018.2
20260502181622 60 174 6.0 18.0 0.00 0.00 0.00 29 1018.2